Home   Weather   Key West   Past weeks

Flag for USA Past Weather in Key West, Florida, USA — Yesterday and Last 2 Weeks

Now
78 °F

Clear.


Feels Like: 81 °F
Forecast: 77 / 82 °F
Wind: 13 mph from Southeast

Location: Key West International Airport

Current Time: Dec 5, 2016 at 5:47:37 am

Latest Report: Dec 5, 2016 at 4:53 am


Visibility: 10 mi

Pressure: 29.98 "Hg

Humidity: 90%

Dew Point: 75 °F

Location of Key WestLocation

Past Weather in Key West — Graph

°F

Key West Temperature Yesterday

Maximum temperature yesterday: 82 °F (at 10:53 am)
Minimum temperature yesterday: 75 °F (at 1:53 am)
Average temperature yesterday: 79 °F

High & Low Weather Summary for the Past Weeks

 TemperatureHumidityPressure
High83 °F (Dec 1, 2:53 pm)100% (Dec 1, 7:01 am)30.19 "Hg (Dec 1, 7:01 am)
Low65 °F (Nov 21, 3:53 am)55% (Nov 21, 1:53 pm)29.90 "Hg (Nov 28, 3:53 pm)
Average75 °F80%30.04 "Hg
* Reported Nov 20 3:53 am — Dec 5 3:53 am, Key West, Weather by CustomWeather, © 2016

Note: Actual official high and low records may vary slightly from our data, if they occured in-between our weather recording intervals... More about our weather records

Advertising

Key West Weather History for the Previous 24 Hours

Scroll right to see more
 ConditionsComfort  
Time TempWeatherWind HumidityBarometerVisibility
3:53 am
Mon, Dec 5
78 °FClear.15 mph90%29.96 "Hg10 mi
2:53 am79 °FClear.14 mph88%29.96 "Hg10 mi
1:53 am79 °FClear.15 mph88%29.97 "Hg10 mi
12:53 am79 °FClear.14 mph84%29.99 "Hg10 mi
11:53 pm
Sun, Dec 4
79 °FClear.16 mph84%30.01 "Hg10 mi
10:53 pm79 °FClear.15 mph88%30.03 "Hg10 mi
9:53 pm79 °FClear.15 mph88%30.02 "Hg10 mi
8:53 pm79 °FClear.15 mph88%30.02 "Hg10 mi
7:53 pm79 °FClear.12 mph88%30.01 "Hg10 mi
6:53 pm79 °FClear.13 mph84%30.00 "Hg10 mi
5:53 pm79 °FPartly cloudy.13 mph88%29.99 "Hg10 mi
4:53 pm80 °FScattered clouds.17 mph85%29.98 "Hg10 mi
3:55 pm80 °FBroken clouds.14 mph87%29.98 "Hg10 mi
2:53 pm82 °FPassing clouds.15 mph79%29.97 "Hg10 mi
1:53 pm82 °FScattered clouds.15 mph79%29.98 "Hg10 mi
12:53 pm82 °FPassing clouds.14 mph79%30.00 "Hg10 mi
11:53 am82 °FBroken clouds.15 mph79%30.03 "Hg10 mi
10:53 am82 °FSunny.14 mph77%30.04 "Hg10 mi
9:53 am81 °FSunny.15 mph77%30.04 "Hg10 mi
8:53 am79 °FPartly sunny.15 mph82%30.03 "Hg10 mi
7:53 am78 °FSunny.14 mph84%30.01 "Hg10 mi
6:53 am77 °FPassing clouds.12 mph85%30.00 "Hg10 mi
5:53 am77 °FPassing clouds.14 mph88%29.99 "Hg10 mi
Weather by CustomWeather, © 2016

See weather overviewHow to use our weather pages